Overview Statistics Trail Chart Weather Telemetry Raw packets
 

This is the latest recevied weather packets stored in our database for station/object K5IDL. If no packets are shown the sender has not sent any weather packets the latest 10 day(s).

<< 14 15 16 17 18 19 20 >>
Time Temp. Humidity Pressure Rain* Wind** Luminosity Snow
1788612934 28.89° C 74% 1015.1 hPa 0 mm - 40 W/m² -
1788612629 28.33° C 75% 1015.2 hPa 0 mm - 34 W/m² -
1788612326 27.78° C 78% 1015.3 hPa 0 mm - 28 W/m² -
1788612022 26.67° C 82% 1015.1 hPa 0 mm - 23 W/m² -
1788611717 26.67° C 82% 1015 hPa 0 mm - 15 W/m² -
1788611413 26.11° C 82% 1015.1 hPa 0 mm - 11 W/m² -
1788611107 26.11° C 81% 1014.9 hPa 0 mm - 9 W/m² -
1788610823 26.11° C 82% 1014.8 hPa 0 mm - 7 W/m² -
1788610497 26.11° C 82% 1014.8 hPa 0 mm - 5 W/m² -
1788610196 26.11° C 82% 1014.8 hPa 0 mm - 4 W/m² -
1788609891 26.11° C 82% 1014.5 hPa 0 mm - 2 W/m² -
1788609586 26.11° C 82% 1014.9 hPa 0 mm - 1 W/m² -
1788609285 26.11° C 82% 1014.6 hPa 0 mm - 1 W/m² -
1788608981 26.11° C 82% 1014.6 hPa 0 mm - 0 W/m² -
1788608680 26.11° C 82% 1014.7 hPa 0 mm - 0 W/m² -
1788608379 26.11° C 82% 1014.6 hPa 0 mm - 0 W/m² -
1788608074 26.11° C 82% 1014.6 hPa 0 mm - 0 W/m² -
1788607770 26.11° C 81% 1014.8 hPa 0 mm - 0 W/m² -
1788607465 26.11° C 82% 1014.6 hPa 0 mm - 0 W/m² -
1788607160 26.11° C 83% 1014.7 hPa 0 mm - 0 W/m² -
1788606854 26.11° C 82% 1014.7 hPa 0 mm - 0 W/m² -
1788606548 26.67° C 81% 1014.7 hPa 0 mm - 0 W/m² -
1788606243 26.67° C 80% 1014.8 hPa 0 mm - 0 W/m² -
1788605937 26.67° C 80% 1014.8 hPa 0 mm - 0 W/m² -
1788605636 26.67° C 79% 1014.6 hPa 0 mm - 0 W/m² -

* Rain latest hour (hover to see other rain measurements)
** Current wind speed in m/s (hover to see current wind gust speed)